| time (UTC) | temp F | wind direction | speed MPH | gust MPH | rain 1hr in | rain 24hr in | rain mn in | humidity % | barometer mb |
| 20260905050937 | 62 | 69 | 1.0 | 5.0 | 0.00 | 0.45 | 0.00 | 84 | 1019.0 |
| 20260905050434 | 62 | 80 | 1.0 | 3.0 | 0.00 | 0.45 | 0.00 | 84 | 1019.0 |
| 20260905045921 | 62 | 80 | 2.0 | 6.0 | 0.00 | 0.45 | 0.45 | 84 | 1019.0 |
| 20260905045415 | 62 | 80 | 1.0 | 6.0 | 0.00 | 0.45 | 0.45 | 84 | 1019.0 |
| 20260905044847 | 62 | 74 | 1.0 | 4.0 | 0.00 | 0.45 | 0.45 | 84 | 1018.9 |
| 20260905044344 | 62 | 74 | 1.0 | 4.0 | 0.00 | 0.45 | 0.45 | 84 | 1019.0 |
| 20260905043819 | 62 | 94 | 1.0 | 4.0 | 0.00 | 0.45 | 0.45 | 84 | 1018.9 |
| 20260905043252 | 62 | 94 | 1.0 | 4.0 | 0.00 | 0.45 | 0.45 | 84 | 1018.8 |
| 20260905042749 | 62 | 96 | 2.0 | 4.0 | 0.00 | 0.45 | 0.45 | 84 | 1018.9 |
| 20260905042223 | 62 | 105 | 2.0 | 4.0 | 0.00 | 0.45 | 0.45 | 84 | 1018.7 |
| 20260905042200 | 62 | 71 | 3.0 | 5.0 | 0.00 | 0.45 | 0.45 | 84 | 1019.0 |
| 20260905041129 | 62 | 71 | 3.0 | 6.0 | 0.00 | 0.45 | 0.45 | 84 | 1019.0 |
| 20260905040628 | 62 | 54 | 2.0 | 5.0 | 0.00 | 0.45 | 0.45 | 84 | 1019.1 |
| 20260905040059 | 62 | 76 | 2.0 | 4.0 | 0.00 | 0.45 | 0.45 | 84 | 1019.1 |
| 20260905035558 | 62 | 75 | 2.0 | 4.0 | 0.00 | 0.45 | 0.45 | 84 | 1019.2 |
| 20260905035030 | 62 | 76 | 2.0 | 5.0 | 0.00 | 0.45 | 0.45 | 84 | 1019.2 |
| 20260905034528 | 63 | 67 | 2.0 | 5.0 | 0.00 | 0.45 | 0.45 | 84 | 1019.1 |
| 20260905033959 | 63 | 73 | 1.0 | 4.0 | 0.00 | 0.45 | 0.45 | 84 | 1019.2 |
| 20260905033458 | 63 | 62 | 0.0 | 4.0 | 0.00 | 0.45 | 0.45 | 84 | 1019.1 |
| 20260905033204 | 63 | 62 | 0.0 | 4.0 | 0.00 | 0.46 | 0.45 | 84 | 1019.3 |
| 20260905032432 | 63 | 52 | 1.0 | 2.0 | 0.00 | 0.47 | 0.45 | 84 | 1019.3 |
| 20260905031921 | 63 | 51 | 1.0 | 4.0 | 0.00 | 0.47 | 0.45 | 83 | 1019.2 |
| 20260905031356 | 63 | 50 | 2.0 | 6.0 | 0.00 | 0.47 | 0.45 | 83 | 1019.3 |
| 20260905030828 | 63 | 48 | 1.0 | 6.0 | 0.00 | 0.47 | 0.45 | 83 | 1019.2 |
| 20260905030325 | 63 | 42 | 2.0 | 4.0 | 0.00 | 0.47 | 0.45 | 83 | 1019.2 |
| 20260905025800 | 63 | 43 | 2.0 | 4.0 | 0.00 | 0.47 | 0.45 | 83 | 1019.2 |
| 20260905025501 | 63 | 46 | 2.0 | 6.0 | 0.00 | 0.48 | 0.45 | 83 | 1019.2 |
| 20260905024729 | 63 | 55 | 2.0 | 6.0 | 0.00 | 0.49 | 0.45 | 83 | 1019.2 |
| 20260905024201 | 63 | 30 | 1.0 | 6.0 | 0.00 | 0.52 | 0.45 | 83 | 1019.2 |
| 20260905023656 | 63 | 90 | 2.0 | 6.0 | 0.00 | 0.60 | 0.45 | 83 | 1019.1 |
| 20260905023153 | 63 | 90 | 3.0 | 8.0 | 0.00 | 0.72 | 0.45 | 83 | 1019.1 |
| 20260905022647 | 63 | 77 | 2.0 | 8.0 | 0.00 | 0.80 | 0.45 | 83 | 1019.1 |
| 20260905022134 | 63 | 27 | 2.0 | 6.0 | 0.00 | 0.90 | 0.45 | 83 | 1019.0 |
| 20260905021636 | 63 | 57 | 2.0 | 6.0 | 0.00 | 0.93 | 0.45 | 83 | 1019.0 |
| 20260905021130 | 63 | 39 | 2.0 | 8.0 | 0.00 | 0.97 | 0.45 | 83 | 1018.9 |
| 20260905020627 | 63 | 84 | 2.0 | 8.0 | 0.00 | 0.99 | 0.45 | 83 | 1018.9 |
| 20260905020059 | 63 | 66 | 3.0 | 8.0 | 0.00 | 1.03 | 0.45 | 83 | 1018.9 |
| 20260905015559 | 63 | 63 | 3.0 | 5.0 | 0.00 | 1.07 | 0.45 | 83 | 1018.8 |
| 20260905015555 | 63 | 61 | 3.0 | 8.0 | 0.00 | 1.07 | 0.45 | 83 | 1018.9 |
| 20260905014547 | 63 | 85 | 3.0 | 11.0 | 0.00 | 1.07 | 0.45 | 83 | 1018.8 |
| 20260905014048 | 63 | 74 | 2.0 | 5.0 | 0.00 | 1.07 | 0.45 | 83 | 1018.6 |
| 20260905014044 | 63 | 59 | 2.0 | 11.0 | 0.00 | 1.07 | 0.45 | 83 | 1018.8 |
| 20260905013039 | 63 | 61 | 2.0 | 5.0 | 0.00 | 1.07 | 0.45 | 83 | 1018.5 |
| 20260905012513 | 63 | 40 | 2.0 | 5.0 | 0.00 | 1.07 | 0.45 | 83 | 1018.5 |
| 20260905011946 | 63 | 44 | 2.0 | 5.0 | 0.00 | 1.07 | 0.45 | 83 | 1018.5 |
| 20260905011443 | 63 | 67 | 3.0 | 8.0 | 0.00 | 1.07 | 0.45 | 83 | 1018.4 |
| 20260905011145 | 63 | 64 | 3.0 | 8.0 | 0.00 | 1.07 | 0.45 | 83 | 1018.3 |
| 20260905010411 | 63 | 63 | 4.0 | 10.0 | 0.00 | 1.07 | 0.45 | 83 | 1018.3 |
| 20260905010114 | 63 | 74 | 4.0 | 10.0 | 0.00 | 1.07 | 0.45 | 83 | 1018.2 |
| 20260905005318 | 63 | 42 | 3.0 | 10.0 | 0.00 | 1.07 | 0.45 | 83 | 1018.2 |
| 20260905004754 | 63 | 53 | 4.0 | 10.0 | 0.00 | 1.07 | 0.45 | 83 | 1018.1 |
| 20260905004226 | 63 | 82 | 2.0 | 10.0 | 0.00 | 1.07 | 0.45 | 83 | 1018.2 |
| 20260905003723 | 63 | 65 | 1.0 | 4.0 | 0.00 | 1.07 | 0.45 | 83 | 1018.2 |
| 20260905003428 | 63 | 91 | 2.0 | 6.0 | 0.00 | 1.07 | 0.45 | 83 | 1018.1 |
| 20260905002635 | 63 | 94 | 3.0 | 6.0 | 0.00 | 1.07 | 0.45 | 82 | 1018.1 |
| 20260905002129 | 63 | 90 | 3.0 | 6.0 | 0.00 | 1.07 | 0.45 | 82 | 1018.1 |
| 20260905001630 | 63 | 86 | 2.0 | 6.0 | 0.00 | 1.07 | 0.45 | 82 | 1018.1 |
| 20260905001103 | 64 | 110 | 2.0 | 6.0 | 0.00 | 1.07 | 0.45 | 82 | 1018.2 |
| 20260905000605 | 64 | 105 | 3.0 | 8.0 | 0.00 | 1.07 | 0.45 | 82 | 1018.1 |
| 20260905000310 | 64 | 65 | 4.0 | 9.0 | 0.00 | 1.07 | 0.45 | 82 | 1018.1 |
| 20260904235511 | 64 | 77 | 3.0 | 9.0 | 0.00 | 1.07 | 0.45 | 82 | 1018.0 |
| 20260904235009 | 64 | 61 | 3.0 | 11.0 | 0.00 | 1.07 | 0.45 | 81 | 1018.1 |
| 20260904234448 | 64 | 97 | 4.0 | 9.0 | 0.00 | 1.07 | 0.45 | 81 | 1018.1 |
| 20260904233946 | 64 | 50 | 4.0 | 11.0 | 0.00 | 1.07 | 0.45 | 81 | 1018.0 |
| 20260904233421 | 64 | 75 | 3.0 | 9.0 | 0.00 | 1.07 | 0.45 | 82 | 1017.9 |
| 20260904232911 | 64 | 77 | 3.0 | 9.0 | 0.00 | 1.07 | 0.45 | 82 | 1017.9 |
| 20260904232359 | 64 | 91 | 3.0 | 10.0 | 0.00 | 1.07 | 0.45 | 82 | 1017.9 |
| 20260904232133 | 64 | 71 | 3.0 | 10.0 | 0.00 | 1.07 | 0.45 | 82 | 1017.8 |
| 20260904231337 | 64 | 65 | 3.0 | 7.0 | 0.00 | 1.07 | 0.45 | 82 | 1017.8 |
| 20260904230834 | 64 | 102 | 4.0 | 10.0 | 0.00 | 1.07 | 0.45 | 82 | 1017.8 |
| 20260904230331 | 64 | 61 | 4.0 | 10.0 | 0.00 | 1.07 | 0.45 | 82 | 1017.9 |
| 20260904225827 | 64 | 58 | 2.0 | 6.0 | 0.00 | 1.07 | 0.45 | 83 | 1017.8 |
| 20260904225327 | 64 | 88 | 2.0 | 7.0 | 0.00 | 1.07 | 0.45 | 83 | 1017.9 |
| 20260904224827 | 64 | 104 | 2.0 | 7.0 | 0.00 | 1.07 | 0.45 | 83 | 1017.9 |
| 20260904224327 | 63 | 71 | 3.0 | 6.0 | 0.00 | 1.07 | 0.45 | 83 | 1017.8 |
| 20260904223819 | 63 | 103 | 2.0 | 6.0 | 0.00 | 1.07 | 0.45 | 83 | 1017.8 |
| 20260904223546 | 63 | 93 | 3.0 | 7.0 | 0.00 | 1.07 | 0.45 | 83 | 1017.9 |
| 20260904222814 | 63 | 98 | 3.0 | 7.0 | 0.00 | 1.07 | 0.45 | 83 | 1017.9 |
| 20260904222313 | 63 | 74 | 3.0 | 7.0 | 0.00 | 1.07 | 0.45 | 83 | 1017.9 |
| 20260904221749 | 63 | 10 | 4.0 | 8.0 | 0.00 | 1.07 | 0.45 | 83 | 1017.9 |
| 20260904221251 | 63 | 78 | 4.0 | 14.0 | 0.00 | 1.07 | 0.45 | 83 | 1017.9 |
| 20260904220727 | 63 | 69 | 6.0 | 14.0 | 0.00 | 1.07 | 0.45 | 83 | 1017.8 |
| 20260904220208 | 63 | 73 | 7.0 | 15.0 | 0.00 | 1.07 | 0.45 | 83 | 1017.8 |
| 20260904215710 | 62 | 78 | 6.0 | 15.0 | 0.00 | 1.07 | 0.45 | 83 | 1017.8 |
| 20260904215137 | 62 | 140 | 8.0 | 16.0 | 0.00 | 1.07 | 0.45 | 83 | 1017.8 |
| 20260904214613 | 62 | 85 | 9.0 | 16.0 | 0.00 | 1.07 | 0.45 | 83 | 1017.7 |
| 20260904214056 | 62 | 101 | 7.0 | 16.0 | 0.00 | 1.07 | 0.45 | 83 | 1017.6 |
| 20260904213555 | 62 | 82 | 8.0 | 16.0 | 0.00 | 1.07 | 0.45 | 83 | 1017.5 |
| 20260904213040 | 62 | 113 | 8.0 | 16.0 | 0.00 | 1.07 | 0.45 | 83 | 1017.6 |
| 20260904212516 | 62 | 102 | 8.0 | 15.0 | 0.00 | 1.07 | 0.45 | 83 | 1017.5 |
| 20260904211956 | 62 | 67 | 7.0 | 14.0 | 0.00 | 1.07 | 0.45 | 83 | 1017.5 |
| 20260904211644 | 62 | 96 | 6.0 | 13.0 | 0.00 | 1.07 | 0.45 | 83 | 1017.5 |
| 20260904211519 | 62 | 70 | 5.0 | 13.0 | 0.00 | 1.07 | 0.45 | 83 | 1017.5 |
| 20260904210637 | 62 | 74 | 6.0 | 13.0 | 0.00 | 1.07 | 0.45 | 83 | 1017.4 |
| 20260904205840 | 62 | 74 | 8.0 | 15.0 | 0.00 | 1.07 | 0.45 | 83 | 1017.6 |
| 20260904205315 | 62 | 61 | 7.0 | 16.0 | 0.00 | 1.07 | 0.45 | 83 | 1017.6 |
| 20260904205025 | 62 | 67 | 7.0 | 16.0 | 0.00 | 1.07 | 0.45 | 83 | 1017.5 |
| 20260904204226 | 62 | 85 | 7.0 | 12.0 | 0.00 | 1.07 | 0.45 | 83 | 1017.6 |
| 20260904203723 | 63 | 11 | 6.0 | 14.0 | 0.00 | 1.07 | 0.45 | 83 | 1017.6 |
| 20260904203220 | 63 | 61 | 5.0 | 13.0 | 0.00 | 1.07 | 0.45 | 83 | 1017.5 |
| 20260904202719 | 62 | 96 | 6.0 | 15.0 | 0.00 | 1.07 | 0.45 | 83 | 1017.6 |
| 20260904202215 | 62 | 51 | 7.0 | 15.0 | 0.00 | 1.07 | 0.45 | 83 | 1017.5 |
| 20260904201650 | 62 | 61 | 6.0 | 13.0 | 0.00 | 1.07 | 0.45 | 83 | 1017.4 |
| 20260904201124 | 62 | 79 | 6.0 | 13.0 | 0.00 | 1.07 | 0.45 | 83 | 1017.4 |
| 20260904200558 | 62 | 69 | 7.0 | 13.0 | 0.00 | 1.07 | 0.45 | 83 | 1017.3 |
| 20260904200031 | 63 | 81 | 5.0 | 12.0 | 0.00 | 1.07 | 0.45 | 83 | 1017.2 |
| 20260904195528 | 63 | 52 | 5.0 | 12.0 | 0.00 | 1.07 | 0.45 | 83 | 1017.2 |
| 20260904195018 | 63 | 94 | 5.0 | 12.0 | 0.00 | 1.07 | 0.45 | 83 | 1017.2 |
| 20260904194449 | 63 | 80 | 4.0 | 11.0 | 0.00 | 1.07 | 0.45 | 83 | 1017.2 |
| 20260904193922 | 62 | 96 | 5.0 | 11.0 | 0.00 | 1.07 | 0.45 | 83 | 1017.0 |
| 20260904193358 | 62 | 58 | 5.0 | 13.0 | 0.00 | 1.07 | 0.45 | 83 | 1017.0 |
| 20260904192855 | 63 | 59 | 5.0 | 13.0 | 0.00 | 1.07 | 0.45 | 83 | 1017.0 |
| 20260904192351 | 63 | 88 | 3.0 | 10.0 | 0.00 | 1.07 | 0.45 | 83 | 1016.9 |
| 20260904191830 | 63 | 81 | 2.0 | 9.0 | 0.00 | 1.07 | 0.45 | 83 | 1016.9 |
| 20260904191557 | 63 | 74 | 3.0 | 8.0 | 0.00 | 1.07 | 0.45 | 83 | 1016.7 |
| 20260904190824 | 63 | 105 | 3.0 | 8.0 | 0.00 | 1.07 | 0.45 | 83 | 1016.8 |
| 20260904190257 | 64 | 98 | 3.0 | 7.0 | 0.00 | 1.07 | 0.45 | 83 | 1016.8 |
| 20260904185754 | 64 | 111 | 3.0 | 8.0 | 0.00 | 1.07 | 0.45 | 83 | 1016.8 |
| 20260904185226 | 64 | 84 | 4.0 | 8.0 | 0.00 | 1.07 | 0.45 | 83 | 1016.8 |
| 20260904184722 | 64 | 96 | 3.0 | 8.0 | 0.00 | 1.07 | 0.45 | 83 | 1016.7 |
| 20260904184659 | 64 | 109 | 2.0 | 4.0 | 0.00 | 1.07 | 0.45 | 83 | 1016.7 |
| 20260904183631 | 64 | 96 | 2.0 | 4.0 | 0.00 | 1.07 | 0.45 | 83 | 1016.7 |
| 20260904183127 | 64 | 85 | 2.0 | 6.0 | 0.00 | 1.07 | 0.45 | 83 | 1016.6 |
| 20260904182624 | 65 | 113 | 3.0 | 6.0 | 0.00 | 1.07 | 0.45 | 83 | 1016.6 |
| 20260904182121 | 64 | 68 | 2.0 | 7.0 | 0.00 | 1.07 | 0.45 | 83 | 1016.6 |
| 20260904181838 | 64 | 75 | 3.0 | 7.0 | 0.00 | 1.07 | 0.45 | 84 | 1016.7 |
| 20260904181104 | 64 | 78 | 3.0 | 6.0 | 0.00 | 1.07 | 0.45 | 84 | 1016.6 |
| 20260904180547 | 64 | 34 | 4.0 | 11.0 | 0.00 | 1.07 | 0.45 | 84 | 1016.6 |
| 20260904180049 | 64 | 30 | 5.0 | 11.0 | 0.00 | 1.07 | 0.45 | 84 | 1016.3 |
| 20260904175546 | 64 | 70 | 4.0 | 10.0 | 0.00 | 1.07 | 0.45 | 84 | 1016.4 |
| 20260904174516 | 64 | 62 | 3.0 | 9.0 | 0.00 | 1.07 | 0.45 | 84 | 1016.6 |
| 20260904173948 | 64 | 40 | 3.0 | 7.0 | 0.00 | 1.07 | 0.45 | 84 | 1016.6 |
| 20260904173446 | 64 | 75 | 3.0 | 8.0 | 0.00 | 1.07 | 0.45 | 84 | 1016.5 |
| 20260904172919 | 64 | 89 | 4.0 | 10.0 | 0.00 | 1.07 | 0.45 | 84 | 1016.6 |
| 20260904172416 | 63 | 76 | 5.0 | 12.0 | 0.00 | 1.07 | 0.45 | 84 | 1016.6 |
| 20260904171848 | 63 | 36 | 4.0 | 12.0 | 0.00 | 1.07 | 0.45 | 84 | 1016.6 |
| 20260904171345 | 63 | 65 | 3.0 | 12.0 | 0.00 | 1.07 | 0.45 | 84 | 1016.6 |
| 20260904171050 | 63 | 78 | 4.0 | 12.0 | 0.00 | 1.07 | 0.45 | 84 | 1016.6 |
| 20260904170315 | 63 | 82 | 5.0 | 12.0 | 0.00 | 1.07 | 0.45 | 84 | 1016.5 |
| 20260904165750 | 63 | 48 | 4.0 | 12.0 | 0.00 | 1.07 | 0.45 | 84 | 1016.6 |
| 20260904165223 | 63 | 48 | 3.0 | 11.0 | 0.00 | 1.07 | 0.45 | 84 | 1016.6 |
| 20260904164951 | 63 | 55 | 3.0 | 8.0 | 0.00 | 1.07 | 0.45 | 84 | 1016.6 |
| 20260904164155 | 63 | 44 | 4.0 | 11.0 | 0.00 | 1.07 | 0.45 | 84 | 1016.6 |
| 20260904163921 | 63 | 67 | 4.0 | 11.0 | 0.00 | 1.07 | 0.45 | 84 | 1016.5 |
| 20260904163421 | 63 | 60 | 3.0 | 6.0 | 0.00 | 1.07 | 0.45 | 84 | 1016.5 |
| 20260904162625 | 63 | 101 | 3.0 | 9.0 | 0.01 | 1.07 | 0.45 | 84 | 1016.4 |
| 20260904162620 | 63 | 82 | 3.0 | 9.0 | 0.01 | 1.07 | 0.45 | 84 | 1016.5 |
| 20260904161551 | 62 | 61 | 3.0 | 8.0 | 0.01 | 1.07 | 0.45 | 84 | 1016.6 |
| 20260904161049 | 62 | 53 | 4.0 | 8.0 | 0.01 | 1.07 | 0.45 | 84 | 1016.5 |
| 20260904160520 | 62 | 97 | 4.0 | 11.0 | 0.01 | 1.07 | 0.45 | 84 | 1016.4 |
| 20260904160018 | 62 | 71 | 5.0 | 11.0 | 0.01 | 1.07 | 0.45 | 84 | 1016.4 |
| 20260904155452 | 62 | 98 | 5.0 | 9.0 | 0.01 | 1.07 | 0.45 | 84 | 1016.5 |
| 20260904155156 | 62 | 67 | 5.0 | 10.0 | 0.01 | 1.07 | 0.45 | 84 | 1016.6 |
| 20260904154421 | 62 | 77 | 5.0 | 10.0 | 0.01 | 1.07 | 0.45 | 84 | 1016.5 |
| 20260904153911 | 62 | 85 | 5.0 | 10.0 | 0.01 | 1.07 | 0.45 | 84 | 1016.4 |
| 20260904153408 | 62 | 102 | 6.0 | 12.0 | 0.01 | 1.07 | 0.45 | 84 | 1016.4 |
| 20260904152842 | 62 | 78 | 5.0 | 12.0 | 0.00 | 1.06 | 0.44 | 84 | 1016.4 |
| 20260904152340 | 62 | 69 | 5.0 | 11.0 | 0.00 | 1.06 | 0.44 | 84 | 1016.3 |
| 20260904151814 | 62 | 71 | 4.0 | 11.0 | 0.00 | 1.06 | 0.44 | 84 | 1016.2 |
| 20260904151312 | 62 | 70 | 4.0 | 9.0 | 0.01 | 1.06 | 0.44 | 84 | 1016.0 |
| 20260904150744 | 62 | 84 | 4.0 | 8.0 | 0.01 | 1.06 | 0.44 | 84 | 1016.0 |
| 20260904150453 | 62 | 74 | 3.0 | 8.0 | 0.01 | 1.06 | 0.44 | 84 | 1015.8 |
| 20260904150329 | 62 | 106 | 4.0 | 7.0 | 0.01 | 1.06 | 0.44 | 84 | 1015.8 |
| 20260904145222 | 62 | 88 | 2.0 | 8.0 | 0.01 | 1.06 | 0.44 | 84 | 1015.8 |
| 20260904144654 | 62 | 94 | 2.0 | 4.0 | 0.01 | 1.06 | 0.44 | 84 | 1015.5 |
| 20260904144130 | 62 | 95 | 3.0 | 8.0 | 0.01 | 1.06 | 0.44 | 84 | 1015.5 |
| 20260904143604 | 62 | 90 | 3.0 | 9.0 | 0.01 | 1.06 | 0.44 | 84 | 1015.5 |
| 20260904143104 | 62 | 113 | 3.0 | 9.0 | 0.01 | 1.06 | 0.44 | 84 | 1015.5 |
| 20260904142601 | 62 | 117 | 3.0 | 7.0 | 0.01 | 1.06 | 0.44 | 84 | 1015.4 |
| 20260904142334 | 62 | 105 | 3.0 | 7.0 | 0.01 | 1.06 | 0.44 | 84 | 1015.4 |
| 20260904141553 | 62 | 92 | 3.0 | 7.0 | 0.01 | 1.06 | 0.44 | 84 | 1015.2 |
| 20260904141054 | 62 | 96 | 2.0 | 6.0 | 0.00 | 1.05 | 0.43 | 84 | 1015.1 |
| 20260904140804 | 62 | 90 | 2.0 | 6.0 | 0.00 | 1.05 | 0.43 | 84 | 1015.1 |
| 20260904140034 | 62 | 52 | 2.0 | 7.0 | 0.00 | 1.05 | 0.43 | 84 | 1015.1 |
| 20260904135808 | 62 | 104 | 1.0 | 4.0 | 0.00 | 1.05 | 0.43 | 84 | 1015.0 |
| 20260904135016 | 62 | 68 | 2.0 | 5.0 | 0.00 | 1.05 | 0.43 | 84 | 1015.0 |
| 20260904134452 | 62 | 70 | 2.0 | 6.0 | 0.00 | 1.05 | 0.43 | 84 | 1014.9 |
| 20260904134217 | 62 | 73 | 2.0 | 6.0 | 0.00 | 1.05 | 0.43 | 84 | 1014.8 |
| 20260904133446 | 62 | 105 | 1.0 | 3.0 | 0.00 | 1.05 | 0.43 | 84 | 1014.8 |
| 20260904132925 | 62 | 61 | 1.0 | 5.0 | 0.00 | 1.05 | 0.43 | 84 | 1014.7 |
| 20260904132401 | 62 | 66 | 2.0 | 5.0 | 0.00 | 1.05 | 0.43 | 84 | 1014.6 |
| 20260904131900 | 62 | 66 | 2.0 | 5.0 | 0.00 | 1.05 | 0.43 | 84 | 1014.6 |
| 20260904131357 | 62 | 56 | 2.0 | 5.0 | 0.00 | 1.05 | 0.43 | 84 | 1014.5 |
| 20260904130856 | 62 | 62 | 2.0 | 5.0 | 0.00 | 1.05 | 0.43 | 84 | 1014.5 |
| 20260904130355 | 62 | 63 | 3.0 | 7.0 | 0.00 | 1.05 | 0.43 | 84 | 1014.4 |
| 20260904125851 | 62 | 61 | 4.0 | 9.0 | 0.00 | 1.05 | 0.43 | 84 | 1014.4 |
| 20260904125332 | 61 | 16 | 3.0 | 9.0 | 0.00 | 1.05 | 0.43 | 84 | 1014.2 |
| 20260904124835 | 61 | 67 | 3.0 | 10.0 | 0.00 | 1.05 | 0.43 | 84 | 1014.2 |
| 20260904124324 | 61 | 55 | 3.0 | 10.0 | 0.00 | 1.05 | 0.43 | 84 | 1014.1 |
| 20260904123821 | 61 | 74 | 3.0 | 5.0 | 0.00 | 1.05 | 0.43 | 84 | 1014.1 |
| 20260904123529 | 61 | 46 | 2.0 | 7.0 | 0.00 | 1.05 | 0.43 | 84 | 1014.0 |
| 20260904122736 | 61 | 62 | 2.0 | 7.0 | 0.00 | 1.05 | 0.43 | 84 | 1013.9 |
| 20260904122212 | 61 | 57 | 3.0 | 6.0 | 0.00 | 1.05 | 0.43 | 83 | 1013.8 |
| 20260904121922 | 61 | 56 | 2.0 | 6.0 | 0.00 | 1.05 | 0.43 | 83 | 1013.9 |
| 20260904121126 | 61 | 61 | 3.0 | 6.0 | 0.00 | 1.05 | 0.43 | 83 | 1013.8 |
| 20260904120852 | 61 | 64 | 3.0 | 6.0 | 0.00 | 1.05 | 0.43 | 83 | 1013.9 |
| 20260904120120 | 61 | 5 | 3.0 | 10.0 | 0.00 | 1.05 | 0.43 | 83 | 1013.8 |
| 20260904115609 | 61 | 27 | 3.0 | 9.0 | 0.00 | 1.05 | 0.43 | 83 | 1013.8 |
| 20260904115107 | 61 | 40 | 2.0 | 6.0 | 0.00 | 1.05 | 0.43 | 83 | 1013.6 |
| 20260904114542 | 61 | 40 | 3.0 | 6.0 | 0.00 | 1.05 | 0.43 | 83 | 1013.5 |
| 20260904114038 | 61 | 71 | 3.0 | 8.0 | 0.00 | 1.05 | 0.43 | 83 | 1013.5 |
| 20260904113536 | 61 | 92 | 2.0 | 8.0 | 0.00 | 1.05 | 0.43 | 83 | 1013.5 |
| 20260904113033 | 61 | 88 | 2.0 | 6.0 | 0.00 | 1.05 | 0.43 | 83 | 1013.4 |
| 20260904112507 | 61 | 77 | 2.0 | 5.0 | 0.00 | 1.05 | 0.43 | 83 | 1013.4 |
| 20260904111941 | 61 | 65 | 3.0 | 7.0 | 0.00 | 1.05 | 0.43 | 83 | 1013.3 |
| 20260904111416 | 61 | 63 | 2.0 | 6.0 | 0.00 | 1.05 | 0.43 | 82 | 1013.4 |
| 20260904110846 | 61 | 80 | 3.0 | 7.0 | 0.00 | 1.05 | 0.43 | 82 | 1013.3 |
| 20260904110321 | 61 | 101 | 4.0 | 10.0 | 0.00 | 1.05 | 0.43 | 82 | 1013.4 |
| 20260904105755 | 61 | 61 | 3.0 | 10.0 | 0.00 | 1.05 | 0.43 | 82 | 1013.3 |
| 20260904105227 | 61 | 63 | 2.0 | 8.0 | 0.00 | 1.05 | 0.43 | 82 | 1013.2 |
| 20260904104725 | 61 | 59 | 2.0 | 8.0 | 0.00 | 1.05 | 0.43 | 82 | 1013.2 |
| 20260904104224 | 61 | 69 | 3.0 | 7.0 | 0.00 | 1.05 | 0.43 | 82 | 1013.3 |
| 20260904103720 | 61 | 65 | 4.0 | 10.0 | 0.00 | 1.05 | 0.43 | 82 | 1013.4 |
| 20260904103153 | 61 | 66 | 4.0 | 11.0 | 0.00 | 1.05 | 0.43 | 82 | 1013.2 |
| 20260904102627 | 60 | 76 | 4.0 | 11.0 | 0.00 | 1.05 | 0.43 | 82 | 1013.2 |
| 20260904102100 | 60 | 46 | 3.0 | 8.0 | 0.00 | 1.05 | 0.43 | 82 | 1013.2 |
| 20260904101556 | 60 | 32 | 3.0 | 7.0 | 0.00 | 1.05 | 0.43 | 82 | 1013.1 |
| 20260904101030 | 60 | 32 | 3.0 | 7.0 | 0.00 | 1.05 | 0.43 | 81 | 1013.0 |
| 20260904100526 | 60 | 69 | 3.0 | 10.0 | 0.00 | 1.05 | 0.43 | 81 | 1013.2 |
| 20260904095959 | 60 | 79 | 3.0 | 10.0 | 0.00 | 1.05 | 0.43 | 81 | 1013.3 |
| 20260904095458 | 60 | 58 | 3.0 | 8.0 | 0.00 | 1.05 | 0.43 | 82 | 1013.2 |
| 20260904094931 | 60 | 67 | 3.0 | 10.0 | 0.00 | 1.05 | 0.43 | 82 | 1013.1 |
| 20260904094425 | 60 | 69 | 3.0 | 10.0 | 0.00 | 1.05 | 0.43 | 82 | 1013.0 |
| 20260904094154 | 60 | 74 | 3.0 | 6.0 | 0.00 | 1.05 | 0.43 | 82 | 1012.9 |
| 20260904093417 | 60 | 88 | 4.0 | 9.0 | 0.00 | 1.05 | 0.43 | 82 | 1012.8 |
| 20260904092851 | 60 | 49 | 4.0 | 10.0 | 0.00 | 1.05 | 0.43 | 82 | 1012.8 |
| 20260904092555 | 60 | 81 | 3.0 | 10.0 | 0.00 | 1.05 | 0.43 | 82 | 1012.8 |
| 20260904091819 | 60 | 61 | 4.0 | 13.0 | 0.00 | 1.05 | 0.43 | 82 | 1012.8 |
| 20260904091309 | 60 | 28 | 5.0 | 13.0 | 0.00 | 1.05 | 0.43 | 82 | 1013.1 |
| 20260904090806 | 60 | 66 | 4.0 | 11.0 | 0.00 | 1.05 | 0.43 | 82 | 1013.2 |
| 20260904090240 | 60 | 42 | 3.0 | 11.0 | 0.00 | 1.05 | 0.43 | 82 | 1013.1 |
| 20260904085736 | 61 | 35 | 3.0 | 9.0 | 0.01 | 1.05 | 0.43 | 82 | 1013.5 |
| 20260904085441 | 61 | 62 | 3.0 | 9.0 | 0.02 | 1.05 | 0.43 | 82 | 1013.6 |
| 20260904084707 | 61 | 66 | 3.0 | 9.0 | 0.02 | 1.05 | 0.43 | 82 | 1013.7 |
| 20260904084139 | 61 | 65 | 3.0 | 9.0 | 0.03 | 1.05 | 0.43 | 82 | 1013.7 |
| 20260904083637 | 61 | 70 | 3.0 | 8.0 | 0.06 | 1.05 | 0.43 | 82 | 1013.7 |
| 20260904083110 | 61 | 74 | 2.0 | 8.0 | 0.23 | 1.05 | 0.43 | 82 | 1013.9 |
| 20260904082546 | 61 | 81 | 2.0 | 5.0 | 0.31 | 1.05 | 0.43 | 81 | 1014.1 |
| 20260904082018 | 61 | 16 | 2.0 | 5.0 | 0.35 | 1.05 | 0.43 | 81 | 1014.3 |
| 20260904081452 | 61 | 88 | 3.0 | 6.0 | 0.35 | 1.05 | 0.43 | 80 | 1013.7 |
| 20260904080950 | 61 | 105 | 4.0 | 12.0 | 0.37 | 1.05 | 0.43 | 79 | 1013.6 |
| 20260904080447 | 61 | 110 | 4.0 | 12.0 | 0.41 | 1.05 | 0.43 | 77 | 1012.9 |
| 20260904075919 | 61 | 74 | 2.0 | 9.0 | 0.42 | 1.05 | 0.43 | 75 | 1013.3 |
| 20260904075415 | 61 | 94 | 1.0 | 4.0 | 0.41 | 1.04 | 0.42 | 74 | 1013.9 |
| 20260904074847 | 62 | 152 | 3.0 | 8.0 | 0.41 | 1.03 | 0.41 | 74 | 1014.0 |
| 20260904074343 | 62 | 153 | 5.0 | 13.0 | 0.40 | 1.02 | 0.40 | 73 | 1014.3 |
| 20260904073841 | 62 | 83 | 5.0 | 13.0 | 0.39 | 1.01 | 0.39 | 72 | 1013.6 |
| 20260904073313 | 62 | 63 | 4.0 | 8.0 | 0.26 | 0.88 | 0.26 | 71 | 1014.4 |
| 20260904072811 | 62 | 277 | 3.0 | 9.0 | 0.16 | 0.78 | 0.17 | 71 | 1015.3 |
| 20260904072244 | 62 | 40 | 4.0 | 14.0 | 0.08 | 0.70 | 0.09 | 70 | 1015.2 |
| 20260904071719 | 62 | 248 | 4.0 | 9.0 | 0.08 | 0.70 | 0.08 | 71 | 1015.1 |
| 20260904071151 | 62 | 86 | 5.0 | 17.0 | 0.07 | 0.69 | 0.07 | 70 | 1013.8 |
| 20260904070649 | 62 | 35 | 6.0 | 16.0 | 0.05 | 0.67 | 0.05 | 70 | 1014.8 |
| 20260904070122 | 62 | 257 | 7.0 | 22.0 | 0.01 | 0.63 | 0.01 | 70 | 1015.3 |
| 20260904065618 | 62 | 64 | 9.0 | 22.0 | 0.01 | 0.63 | 0.01 | 70 | 1013.8 |
| 20260904065052 | 62 | 75 | 11.0 | 26.0 | 0.00 | 0.62 | 0.00 | 69 | 1013.7 |
| 20260904064549 | 62 | 63 | 8.0 | 23.0 | 0.00 | 0.62 | 0.00 | 69 | 1013.3 |
| 20260904064021 | 62 | 106 | 8.0 | 19.0 | 0.00 | 0.62 | 0.00 | 69 | 1013.6 |
| 20260904063749 | 62 | 92 | 9.0 | 21.0 | 0.00 | 0.62 | 0.00 | 68 | 1013.8 |
| 20260904062953 | 62 | 23 | 10.0 | 21.0 | 0.00 | 0.62 | 0.00 | 68 | 1013.8 |
| 20260904062427 | 62 | 140 | 8.0 | 21.0 | 0.00 | 0.62 | 0.00 | 68 | 1014.0 |
| 20260904061923 | 62 | 94 | 7.0 | 15.0 | 0.00 | 0.62 | 0.00 | 67 | 1014.0 |
| 20260904061421 | 62 | 26 | 9.0 | 21.0 | 0.00 | 0.62 | 0.00 | 67 | 1014.2 |
| 20260904060853 | 62 | 36 | 9.0 | 21.0 | 0.00 | 0.62 | 0.00 | 67 | 1014.2 |
| 20260904060354 | 62 | 27 | 8.0 | 21.0 | 0.00 | 0.62 | 0.00 | 67 | 1014.2 |
| 20260904055847 | 62 | 85 | 9.0 | 21.0 | 0.00 | 0.62 | 0.00 | 68 | 1014.3 |
| 20260904055321 | 62 | 103 | 9.0 | 21.0 | 0.00 | 0.62 | 0.00 | 68 | 1014.2 |
| 20260904054821 | 62 | 68 | 8.0 | 21.0 | 0.00 | 0.62 | 0.00 | 68 | 1014.2 |
| 20260904054323 | 62 | 24 | 7.0 | 17.0 | 0.00 | 0.62 | 0.00 | 68 | 1014.4 |
| 20260904054027 | 62 | 69 | 9.0 | 23.0 | 0.00 | 0.62 | 0.00 | 68 | 1014.3 |
| 20260904053253 | 62 | 74 | 9.0 | 23.0 | 0.00 | 0.62 | 0.00 | 68 | 1014.2 |
| 20260904053002 | 62 | 61 | 8.0 | 18.0 | 0.00 | 0.62 | 0.00 | 68 | 1014.5 |
| 20260904052235 | 62 | 61 | 9.0 | 18.0 | 0.00 | 0.62 | 0.00 | 68 | 1014.6 |
| 20260904051715 | 62 | 80 | 10.0 | 22.0 | 0.00 | 0.62 | 0.00 | 68 | 1014.3 |
| 20260904051219 | 62 | 74 | 9.0 | 19.0 | 0.00 | 0.62 | 0.00 | 68 | 1014.2 |